Date String (YYYY-MM-DD hh:mm:ss) UTC,Instrument flags,Ambient pressure (hPa),Sample flow (lpm),Bypass flow (lpm),Sample temperature (°C),Ambient temperature (°C),ASC tube jacket temperature (°C),LED temperature (°C),Box temperature (°C),Sample RH (%),Span deviation,Mass concentration (μg/m³),Mass concentration (μg/m³),Mass concentration (μg/m³)
DateTimeUTC,F1_M11,P_M11,Q1_M11,Q2_M11,T1_M11,T2_M11,T3_M11,T4_M11,T5_M11,U1_M11,ZSPAN_M11,X0_M11,X2_M11,X1_M11
2022-12-07 15:00:00,,0827.0,5.00,0.00,22.2,20.9,00.0,31.1,24.0,09.5,0000.0,0003.40,0001.93,0001.54
2022-12-07 15:01:00,,0827.1,4.99,0.00,22.2,20.9,00.0,31.1,24.0,09.7,0000.0,0004.04,0001.93,0001.54
2022-12-07 15:02:00,,0827.2,4.99,0.00,22.2,20.9,00.0,31.1,24.0,09.4,0000.0,0004.15,0001.94,0001.54
2022-12-07 15:03:00,,0827.2,5.00,0.00,22.2,20.9,00.0,31.1,24.0,09.4,0000.0,0004.21,0001.95,0001.53
2022-12-07 15:04:00,,0827.2,5.01,0.00,22.2,20.9,00.0,31.1,24.0,09.4,0000.0,0004.27,0001.96,0001.53
2022-12-07 15:05:00,,0827.2,5.01,0.00,22.2,20.9,00.0,31.1,24.0,09.3,0000.0,0004.86,0002.03,0001.54
2022-12-07 15:06:00,,0827.2,5.00,0.00,22.2,20.9,00.0,31.1,24.0,09.3,0000.0,0005.32,0002.06,0001.54
2022-12-07 15:07:00,,0827.2,5.01,0.00,22.2,20.9,00.0,31.1,24.0,09.3,0000.0,0005.29,0002.07,0001.54
2022-12-07 15:08:00,,0827.2,4.99,0.00,22.2,20.9,00.0,31.1,24.0,09.9,0000.0,0005.26,0002.06,0001.54
2022-12-07 15:09:00,,0827.2,5.00,0.00,22.2,20.9,00.0,31.1,24.0,09.9,0000.0,0005.33,0002.11,0001.54
2022-12-07 15:10:00,,0827.4,5.00,0.00,22.2,20.9,00.0,31.1,24.0,09.7,0000.0,0005.46,0002.16,0001.54
2022-12-07 15:11:00,,0827.2,4.99,0.00,22.2,21.0,00.0,31.1,24.0,09.8,0000.0,0005.55,0002.19,0001.55
2022-12-07 15:12:00,,0827.3,5.00,0.00,22.2,21.0,00.0,31.1,24.0,10.3,0000.0,0005.17,0002.19,0001.55
2022-12-07 15:13:00,,0827.2,5.01,0.00,22.2,21.0,00.0,31.1,24.0,10.5,0000.0,0004.88,0002.19,0001.55
2022-12-07 15:14:00,,0827.2,5.01,0.00,22.2,21.0,00.0,31.1,24.0,10.8,0000.0,0005.06,0002.26,0001.55
2022-12-07 15:15:00,,0827.2,5.00,0.00,22.2,21.0,00.0,31.1,24.0,11.0,0000.0,0004.94,0002.26,0001.55
2022-12-07 15:16:00,,0827.2,5.00,0.00,22.2,21.0,00.0,31.1,24.1,11.1,0000.0,0004.81,0002.26,0001.56
2022-12-07 15:17:00,,0827.2,5.00,0.00,22.2,21.0,00.0,31.1,24.0,10.5,0000.0,0004.24,0002.24,0001.57
2022-12-07 15:18:00,,0827.2,5.00,0.00,22.3,21.1,00.0,31.1,24.1,10.4,0000.0,0004.08,0002.23,0001.57
2022-12-07 15:19:00,,0827.2,5.01,0.00,22.3,21.1,00.0,31.1,24.1,10.2,0000.0,0003.92,0002.21,0001.55
2022-12-07 15:20:00,,0827.2,5.00,0.00,22.3,21.1,00.0,31.1,24.1,09.7,0000.0,0003.79,0002.16,0001.55
2022-12-07 15:21:00,,0827.2,5.00,0.00,22.3,21.1,00.0,31.1,24.1,09.8,0000.0,0003.69,0002.13,0001.55
2022-12-07 15:22:00,,0827.2,5.00,0.00,22.3,21.1,00.0,31.1,24.1,09.9,0000.0,0003.74,0002.15,0001.56
2022-12-07 15:23:00,,0827.2,5.00,0.00,22.3,21.1,00.0,31.2,24.1,10.0,0000.0,0003.78,0002.16,0001.55
2022-12-07 15:24:00,,0827.2,5.00,0.00,22.3,21.2,00.0,31.2,24.2,09.9,0000.0,0003.84,0002.19,0001.56
2022-12-07 15:25:00,,0827.2,5.00,0.00,22.3,21.2,00.0,31.2,24.2,09.9,0000.0,0003.83,0002.16,0001.56
2022-12-07 15:26:00,,0827.2,5.00,0.00,22.4,21.2,00.0,31.2,24.2,09.8,0000.0,0003.80,0002.16,0001.58
2022-12-07 15:27:00,,0827.2,5.01,0.00,22.4,21.2,00.0,31.2,24.2,09.8,0000.0,0003.61,0002.12,0001.59
2022-12-07 15:28:00,,0827.2,5.01,0.00,22.4,21.2,00.0,31.2,24.2,09.7,0000.0,0003.53,0002.12,0001.59
2022-12-07 15:29:00,,0827.2,4.99,0.00,22.4,21.2,00.0,31.2,24.2,09.7,0000.0,0003.41,0002.12,0001.61
2022-12-07 15:30:00,,0827.2,4.99,0.00,22.4,21.2,00.0,31.2,24.2,09.9,0000.0,0003.36,0002.12,0001.62
2022-12-07 15:31:00,,0827.2,4.99,0.00,22.4,21.2,00.0,31.2,24.2,09.8,0000.0,0003.65,0002.18,0001.63
2022-12-07 15:32:00,,0827.2,4.99,0.00,22.4,21.2,00.0,31.2,24.2,09.8,0000.0,0003.64,0002.18,0001.63
2022-12-07 15:33:00,,0827.2,5.00,0.00,22.4,21.2,00.0,31.3,24.2,09.9,0000.0,0003.58,0002.14,0001.63
2022-12-07 15:34:00,,0827.2,5.00,0.00,22.4,21.2,00.0,31.3,24.2,09.8,0000.0,0003.72,0002.17,0001.64
2022-12-07 15:35:00,,0827.2,5.00,0.00,22.4,21.3,00.0,31.3,24.2,09.7,0000.0,0003.85,0002.14,0001.64
2022-12-07 15:36:00,,0827.2,5.00,0.00,22.5,21.3,00.0,31.3,24.2,09.5,0000.0,0003.69,0002.09,0001.62
2022-12-07 15:37:00,,0827.2,5.00,0.00,22.5,21.3,00.0,31.3,24.2,09.5,0000.0,0003.74,0002.07,0001.60
2022-12-07 15:38:00,,0827.2,5.00,0.00,22.5,21.3,00.0,31.3,24.2,09.5,0000.0,0003.70,0002.06,0001.58
2022-12-07 15:39:00,,0827.2,5.00,0.00,22.5,21.3,00.0,31.3,24.3,09.2,0000.0,0003.75,0002.04,0001.55
2022-12-07 15:40:00,,0827.2,5.00,0.00,22.5,21.4,00.0,31.3,24.3,09.5,0000.0,0003.73,0001.98,0001.50
2022-12-07 15:41:00,,0827.2,4.99,0.00,22.5,21.4,00.0,31.3,24.3,09.7,0000.0,0003.67,0001.94,0001.47
2022-12-07 15:42:00,,0827.2,4.99,0.00,22.5,21.4,00.0,31.3,24.3,09.4,0000.0,0003.37,0001.88,0001.43
2022-12-07 15:43:00,,0827.2,4.99,0.00,22.6,21.4,00.0,31.4,24.4,09.3,0000.0,0003.29,0001.81,0001.40
2022-12-07 15:44:00,,0827.2,5.00,0.00,22.6,21.4,00.0,31.4,24.4,09.4,0000.0,0003.25,0001.79,0001.37
2022-12-07 15:45:00,,0827.2,5.00,0.00,22.6,21.4,00.0,31.4,24.4,09.4,0000.0,0003.00,0001.71,0001.33
2022-12-07 15:46:00,,0827.2,5.01,0.00,22.6,21.4,00.0,31.4,24.4,09.4,0000.0,0002.63,0001.64,0001.30
2022-12-07 15:47:00,,0827.2,5.01,0.00,22.6,21.4,00.0,31.4,24.4,09.5,0000.0,0002.92,0001.62,0001.28
2022-12-07 15:48:00,,0827.4,5.00,0.00,22.6,21.4,00.0,31.4,24.4,09.7,0000.0,0003.75,0001.64,0001.27
2022-12-07 15:49:00,,0827.2,5.00,0.00,22.6,21.4,00.0,31.4,24.4,10.0,0000.0,0003.77,0001.63,0001.27
2022-12-07 15:50:00,,0827.2,5.00,0.00,22.6,21.4,00.0,31.4,24.5,10.3,0000.0,0003.74,0001.65,0001.28
2022-12-07 15:51:00,,0827.3,5.00,0.00,22.6,21.4,00.0,31.5,24.5,10.1,0000.0,0003.79,0001.68,0001.31
2022-12-07 15:52:00,,0827.3,5.00,0.00,22.6,21.4,00.0,31.5,24.5,10.3,0000.0,0003.79,0001.72,0001.33
2022-12-07 15:53:00,,0827.3,5.00,0.00,22.6,21.4,00.0,31.5,24.5,10.2,0000.0,0003.96,0001.76,0001.36
2022-12-07 15:54:00,,0827.4,4.99,0.00,22.6,21.4,00.0,31.5,24.5,10.3,0000.0,0004.24,0001.80,0001.39
2022-12-07 15:55:00,,0827.4,5.01,0.00,22.6,21.4,00.0,31.5,24.5,10.3,0000.0,0004.43,0001.90,0001.42
2022-12-07 15:56:00,,0827.4,5.00,0.00,22.7,21.4,00.0,31.5,24.5,10.3,0000.0,0004.67,0002.02,0001.47
2022-12-07 15:57:00,,0827.4,5.00,0.00,22.6,21.4,00.0,31.5,24.5,10.3,0000.0,0004.99,0002.09,0001.50
2022-12-07 15:58:00,,0827.3,5.00,0.00,22.6,21.4,00.0,31.5,24.5,10.3,0000.0,0004.95,0002.14,0001.55
2022-12-07 15:59:00,,0827.4,5.01,0.00,22.7,21.4,00.0,31.5,24.6,10.3,0000.0,0004.19,0002.18,0001.59
